Location: Clanezzo
(45.7500°N, 9.6000°E)
Time: 13:14:52
(UTC+00:00)

Cosmos 1777 Rocket - Pass Details

Date: 12 May 2021
Orbit: 758 x 776 km, 74.0° (Epoch: 19 June)

Event Time Altitude Azimuth Distance (km) Brightness Sun altitude
Rises 20:06:37 0° 195° (SSW) 3,203 6.9 -12.7°
Reaches altitude 10° 20:08:59 10° 193° (SSW) 2,281 6.2 -12.9°
Maximum altitude 20:14:08 76° 109° (ESE) 786 3.9 -13.6°
Drops below altitude 10° 20:19:20 10° 24° (NNE) 2,298 6.8 -14.2°
Sets 20:21:43 0° 23° (NNE) 3,229 7.6 -14.5°
